Flag for U.S.A. Weather past 2 weeks in Bryan – College Station, Texas, U.S.A.

Now
90 °F

Passing clouds.


Feels Like: 95 °F
Forecast: 72 / 92 °F
Wind: 14 mph from South

Location: Easterwood Field

Current Time: Aug 31, 2015 at 3:38:10 PM

Latest Report: Aug 31, 2015 at 2:53 PM


Visibility: 10 mi

Pressure: 29.98 "Hg

Humidity: 50%

Dew point: 69 °F

Location of Bryan – College StationLocation

Historic Weather in Bryan – College Station — Graph

°F

Bryan – College Station temperature yesterday

Maximum temperature yesterday: 89 °F (at 3:53 PM)
Minimum temperature yesterday: 74 °F (at 5:53 AM)
Average temperature yesterday: 80 °F

Past Weeks' High & Low Weather Summary

 TemperatureHumidityPressure
High99 °F (Aug 18, 3:53 PM)94% (Aug 18, 6:53 AM)30.12 "Hg (Aug 18, 6:53 AM)
Low70 °F (Aug 27, 6:53 AM)34% (Aug 18, 3:53 PM)29.74 "Hg (Aug 18, 5:53 PM)
Average82 °F68%29.96 "Hg
* Reported Aug 16 1:53 PM — Aug 31 1:53 PM, Bryan – College Station, Weather by CustomWeather, © 2015

Note: Actual official high and low records may vary slightly from our data, if they occured in-between our weather recording intervals... More about our weather records

Advertising

Bryan – College Station weather history for previous 24 hours

 ConditionsComfort  
Time TempWeatherWind HumidityBarometerVisibility
1:53 PM
Mon, Aug 31
90 °FSunny.7 mph48%30.00 "Hg10 mi
12:53 PM89 °FSunny.9 mph50%30.02 "Hg10 mi
11:53 AM87 °FSunny.3 mph55%30.02 "Hg10 mi
11:00 AM84 °FScattered clouds.5 mph67%30.05 "Hg10 mi
9:53 AM81 °FPassing clouds.7 mph77%30.03 "Hg10 mi
8:53 AM77 °FScattered clouds.3 mph85%30.03 "Hg10 mi
7:53 AM74 °FPassing clouds.3 mph91%30.01 "Hg10 mi
6:53 AM72 °FClear.3 mph93%29.99 "Hg10 mi
5:53 AM73 °FClear.5 mph90%29.98 "Hg10 mi
4:53 AM73 °FClear.No wind90%29.97 "Hg10 mi
3:53 AM74 °FClear.3 mph88%29.96 "Hg10 mi
2:53 AM74 °FPassing clouds.5 mph88%29.96 "Hg10 mi
1:53 AM76 °FClear.6 mph82%29.96 "Hg10 mi
12:53 AM77 °FClear.8 mph77%29.96 "Hg10 mi
11:53 PM
Sun, Aug 30
77 °FClear.7 mph69%29.96 "Hg10 mi
10:53 PM78 °FClear.5 mph69%29.96 "Hg10 mi
9:53 PM80 °FClear.3 mph64%29.97 "Hg10 mi
8:53 PM81 °FClear.3 mph60%29.96 "Hg10 mi
7:53 PM83 °FSunny.5 mph57%29.95 "Hg10 mi
6:53 PM86 °FSunny.6 mph48%29.95 "Hg10 mi
5:53 PM88 °FPassing clouds.8 mph48%29.94 "Hg10 mi
4:53 PM89 °FSunny.7 mph43%29.94 "Hg10 mi
3:53 PM89 °FSunny.8 mph45%29.96 "Hg10 mi
Weather by CustomWeather, © 2015

See weather overviewHow to use our weather pages